Location: Canyam�s
(41.5996°N, 2.4450°E)
Time: 15:33:30
(UTC+00:00)

Cosmos 1805 - Pass Details

Date: 06 June 2020
Orbit: 525 x 531 km, 82.5° (Epoch: 09 July)

Event Time Altitude Azimuth Distance (km) Brightness Sun altitude
Rises 21:10:26 0° 347° (NNW) 2,684 8.1 -15.9°
Reaches altitude 10° 21:12:38 10° 342° (NNW) 1,788 7.1 -16.1°
Maximum altitude 21:16:27 52° 266° (W) 668 3.9 -16.6°
Enters shadow 21:18:50 21° 197° (SSW) 1,230 4.8 -16.8°
